Lyndonville, VT

6:15 PM EST on February 23, 2017 (GMT -0500)
Lyndonville

Weather History for KCDA - April, 2014

Change the Weather History Date:

Saturday, April 5, 2014

  Actual Average (K1V4) Record (K1V4)
Temperature  
Mean Temperature 36 °F -  
Max Temperature 40 °F 44 °F 83 °F (1910)
Min Temperature 32 °F 25 °F 0 °F (1964)
Degree Days  
Heating Degree Days 29    
Moisture  
Dew Point 29 °F    
Average Humidity 81    
Maximum Humidity 94    
Minimum Humidity 61    
Precipitation  
Precipitation 0.00 in - - ()
Sea Level Pressure  
Sea Level Pressure 29.73 in    
Wind  
Wind Speed 7 mph (SW)    
Max Wind Speed 17 mph    
Max Gust Speed 32 mph    
Visibility 6 miles    
Events Fog , Rain , Snow    
Averages and records for this station are not official NWS values.
T = Trace of Precipitation, MM = Missing Value Source: NWS Daily Summary

Daily Weather History Graph

Daily Weather History Graph

Search for Another Location

Airport or City:

Trip Planner

Search our weather history database for the weather conditions in past years. The results will help you decide how hot, cold, wet, or windy it might be!

Date:

Astronomy

Apr. 05, 2014 Rise Set
Actual Time 6:21 AM EDT 7:20 PM EDT
Civil Twilight 5:52 AM EDT 7:50 PM EDT
Nautical Twilight 5:16 AM EDT 8:25 PM EDT
Astronomical Twilight 4:39 AM EDT 9:03 PM EDT
Moon 10:18 AM EDT (4/5) 12:36 AM EDT (4/5)
Length of Visible Light 13h 58m
Length of Day
12h 58m
Waxing Crescent, 34% of the Moon is Illuminated
Apr 5
Waxing Crescent
Apr 7
First Quarter
Apr 15
Full
Apr 22
Last Quarter
Apr 29
New

Hourly Weather History & Observations

Time (EDT) Temp. Windchill Dew Point Humidity Pressure Visibility Wind Dir Wind Speed Gust Speed Precip Events Conditions
12:15 AM 32.5 °F 28.1 °F 30.2 °F 91% 29.83 in 4.0 mi SSE 4.6 mph - N/A Rain Light Rain
12:35 AM 32.5 °F 26.2 °F 30.2 °F 91% 29.82 in 10.0 mi SSE 6.9 mph - N/A   Overcast
12:55 AM 32.9 °F 25.9 °F 30.2 °F 90% 29.82 in 7.0 mi SSE 8.1 mph - N/A   Drizzle
1:15 AM 32.9 °F 25.9 °F 30.2 °F 90% 29.81 in 5.0 mi SE 8.1 mph - N/A   Drizzle
1:35 AM 32.5 °F 29.3 °F 30.4 °F 92% 29.81 in 7.0 mi SSE 3.5 mph - N/A   Light Drizzle
1:55 AM 32.9 °F 24.1 °F 30.6 °F 91% 29.79 in 7.0 mi South 11.5 mph - N/A   Overcast
2:15 AM 32.7 °F 25.0 °F 30.6 °F 92% 29.76 in 10.0 mi SSE 9.2 mph - N/A   Overcast
2:35 AM 32.9 °F 25.3 °F 30.6 °F 91% 29.76 in 5.0 mi South 9.2 mph - N/A Rain Light Rain
2:55 AM 32.9 °F 26.7 °F 30.7 °F 92% 29.77 in 7.0 mi South 6.9 mph - N/A Rain Light Rain
3:15 AM 32.9 °F 27.5 °F 30.9 °F 92% 29.75 in 10.0 mi South 5.8 mph - N/A   Drizzle
3:35 AM 32.5 °F 29.3 °F 30.6 °F 92% 29.73 in 10.0 mi SSE 3.5 mph - N/A   Overcast
3:55 AM 32.5 °F 28.1 °F 30.7 °F 93% 29.72 in 10.0 mi SSE 4.6 mph - N/A   Overcast
4:15 AM 32.5 °F 28.1 °F 30.7 °F 93% 29.73 in 10.0 mi SSE 4.6 mph - N/A   Overcast
4:35 AM 32.5 °F 29.3 °F 30.7 °F 93% 29.72 in 2.0 mi ESE 3.5 mph - N/A   Overcast
4:55 AM 32.7 °F 29.6 °F 31.1 °F 94% 29.72 in 4.0 mi SE 3.5 mph - N/A   Overcast
5:15 AM 32.9 °F 29.8 °F 31.1 °F 93% 29.72 in 5.0 mi SSE 3.5 mph - N/A   Overcast
5:35 AM 32.9 °F - 31.1 °F 93% 29.72 in 4.0 mi Calm Calm - N/A   Overcast
5:55 AM 32.9 °F - 31.1 °F 93% 29.71 in 2.5 mi Calm Calm - N/A   Light Drizzle
6:15 AM 32.9 °F - 31.1 °F 93% 29.71 in 1.0 mi Calm Calm - N/A   Light Drizzle
6:35 AM 32.9 °F - 31.5 °F 94% 29.71 in 0.8 mi Calm Calm - N/A   Drizzle
6:55 AM 33.3 °F - 31.5 °F 93% 29.70 in 4.0 mi Calm Calm - N/A   Overcast
7:15 AM 33.3 °F 30.2 °F 31.6 °F 94% 29.70 in 2.0 mi SSE 3.5 mph - N/A   Overcast
7:35 AM 33.3 °F 28.9 °F 31.6 °F 94% 29.69 in 2.0 mi SSE 4.6 mph - N/A   Overcast
7:55 AM 33.3 °F - 31.6 °F 94% 29.69 in 1.2 mi Calm Calm - N/A   Overcast
8:15 AM 33.3 °F 30.2 °F 31.8 °F 94% 29.69 in 1.8 mi SSE 3.5 mph - N/A Rain Light Rain
8:35 AM 33.4 °F - 32.0 °F 94% 29.69 in 1.2 mi Calm Calm - N/A   Overcast
8:55 AM 33.4 °F 30.4 °F 32.0 °F 94% 29.69 in 0.5 mi SE 3.5 mph - N/A Fog Fog
9:15 AM 33.8 °F - 32.0 °F 93% 29.69 in 0.2 mi Calm Calm - N/A Fog Fog
9:35 AM 33.8 °F - 32.0 °F 93% 29.69 in 5.0 mi Calm Calm - N/A   Overcast
9:55 AM 34.2 °F - 32.2 °F 92% 29.69 in 2.0 mi Calm Calm - N/A   Overcast
10:15 AM 35.1 °F - 32.9 °F 92% 29.68 in 0.5 mi Calm Calm - N/A Fog Fog
10:35 AM 35.2 °F 32.4 °F 33.1 °F 92% 29.68 in 1.0 mi SE 3.5 mph - N/A   Overcast
10:55 AM 36.0 °F 32.1 °F 33.8 °F 92% 29.67 in 10.0 mi South 4.6 mph - N/A   Overcast
11:15 AM 37.4 °F 33.8 °F 34.7 °F 90% 29.67 in 10.0 mi South 4.6 mph - N/A   Overcast
11:35 AM 38.1 °F - 34.2 °F 86% 29.67 in 10.0 mi Calm Calm - N/A   Overcast
11:55 AM 37.6 °F - 33.8 °F 86% 29.67 in 10.0 mi Calm Calm - N/A   Overcast
12:15 PM 37.9 °F - 34.2 °F 86% 29.67 in 10.0 mi Calm Calm - N/A   Overcast
12:35 PM 38.7 °F 33.6 °F 33.3 °F 81% 29.66 in 10.0 mi WSW 6.9 mph - N/A   Overcast
12:55 PM 39.6 °F 35.4 °F 32.9 °F 77% 29.66 in 10.0 mi WSW 5.8 mph - N/A   Overcast
1:15 PM 40.1 °F 32.4 °F 31.8 °F 72% 29.66 in 10.0 mi West 13.8 mph 18.4 mph N/A   Overcast
1:35 PM 39.2 °F 31.6 °F 30.6 °F 71% 29.66 in 10.0 mi West 12.7 mph 17.3 mph N/A   Overcast
1:55 PM 38.7 °F 32.4 °F 31.1 °F 74% 29.66 in 10.0 mi SW 9.2 mph - N/A   Light Drizzle
2:15 PM 37.6 °F 31.6 °F 31.8 °F 80% 29.66 in 10.0 mi WSW 8.1 mph - N/A   Overcast
2:35 PM 38.3 °F 31.9 °F 30.9 °F 75% 29.66 in 10.0 mi WSW 9.2 mph 18.4 mph N/A   Overcast
2:55 PM 38.7 °F 31.8 °F 29.3 °F 69% 29.66 in 10.0 mi WSW 10.4 mph 18.4 mph N/A   Overcast
3:15 PM 37.9 °F 32.1 °F 29.1 °F 71% 29.66 in 10.0 mi WSW 8.1 mph 17.3 mph N/A Rain Light Rain
3:35 PM 38.5 °F 31.1 °F 28.8 °F 68% 29.67 in 10.0 mi WSW 11.5 mph - N/A   Overcast
3:55 PM 38.5 °F 29.9 °F 28.0 °F 66% 29.67 in 10.0 mi WSW 15.0 mph 19.6 mph N/A   Overcast
4:15 PM 38.7 °F 29.5 °F 26.1 °F 61% 29.68 in 10.0 mi WSW 17.3 mph 24.2 mph N/A   Overcast
4:35 PM 38.8 °F 33.2 °F 26.4 °F 61% 29.68 in 10.0 mi WSW 8.1 mph 16.1 mph N/A   Overcast
4:55 PM 37.8 °F 31.3 °F 25.3 °F 61% 29.69 in 10.0 mi West 9.2 mph 19.6 mph N/A Snow Light Snow
5:15 PM 36.9 °F 29.1 °F 25.3 °F 63% 29.70 in 10.0 mi West 11.5 mph 21.9 mph N/A   Overcast
5:35 PM 36.3 °F 26.4 °F 24.3 °F 62% 29.71 in 10.0 mi West 17.3 mph 21.9 mph N/A Snow Light Snow
5:55 PM 35.2 °F 25.4 °F 24.6 °F 65% 29.72 in 7.0 mi West 16.1 mph 24.2 mph N/A Snow Light Snow
6:15 PM 34.9 °F 24.6 °F 24.6 °F 66% 29.74 in 10.0 mi West 17.3 mph 27.6 mph N/A Snow Light Snow
6:35 PM 33.6 °F 25.0 °F 25.7 °F 73% 29.76 in 3.0 mi West 11.5 mph - N/A Snow Light Snow
6:55 PM 32.9 °F 22.8 °F 25.7 °F 75% 29.76 in 4.0 mi West 15.0 mph 25.3 mph N/A Snow Light Snow
7:15 PM 32.5 °F 22.7 °F 25.3 °F 75% 29.78 in 4.0 mi West 13.8 mph 21.9 mph N/A Snow Light Snow
7:35 PM 32.0 °F 22.1 °F 25.5 °F 77% 29.79 in 5.0 mi West 13.8 mph 18.4 mph N/A Snow Light Snow
7:55 PM 32.0 °F 23.0 °F 25.5 °F 77% 29.80 in 4.0 mi West 11.5 mph 19.6 mph N/A Snow Light Snow
8:35 PM 32.0 °F 22.1 °F 24.3 °F 73% 29.82 in 10.0 mi WSW 13.8 mph 19.6 mph N/A Snow Light Snow
8:55 PM 32.0 °F 22.5 °F 23.0 °F 69% 29.83 in 5.0 mi West 12.7 mph 24.2 mph N/A Snow Light Snow
9:15 PM 32.0 °F 22.1 °F 23.4 °F 70% 29.83 in 7.0 mi West 13.8 mph 18.4 mph N/A Snow Light Snow
9:35 PM 32.0 °F 24.2 °F 23.9 °F 72% 29.84 in 7.0 mi West 9.2 mph - N/A Snow Light Snow
9:55 PM 32.0 °F 25.6 °F 23.5 °F 71% 29.84 in 7.0 mi West 6.9 mph - N/A Snow Light Snow
10:15 PM 32.0 °F 23.0 °F 23.7 °F 71% 29.85 in 5.0 mi West 11.5 mph 18.4 mph N/A Snow Light Snow
10:35 PM 32.0 °F 22.5 °F 23.0 °F 69% 29.86 in 7.0 mi West 12.7 mph 19.6 mph N/A Snow Light Snow
10:55 PM 32.0 °F 23.6 °F 22.8 °F 69% 29.86 in 5.0 mi WNW 10.4 mph 23.0 mph N/A Snow Light Snow
11:15 PM 32.0 °F 22.1 °F 20.8 °F 63% 29.87 in 5.0 mi West 13.8 mph 28.8 mph N/A   Haze
11:35 PM 32.0 °F 21.2 °F 19.9 °F 61% 29.87 in 3.0 mi West 16.1 mph 32.2 mph N/A   Haze
11:55 PM 32.0 °F 21.6 °F 19.9 °F 61% 29.88 in 7.0 mi West 15.0 mph 31.1 mph N/A   Overcast